Weather History for Ionia, MI

Change the Weather History Date:

Friday, October 26, 2012

  Actual Average (KGRR) Record (KGRR)
Temperature  
Mean Temperature 46 °F 48 °F  
Max Temperature 54 °F 56 °F 79 °F (1939)
Min Temperature 38 °F 39 °F 24 °F (1990)
Degree Days  
Heating Degree Days 18 17  
Month to date heating degree days 347  
Since 1 July heating degree days 499  
Cooling Degree Days 0 0  
Month to date cooling degree days 4  
Year to date cooling degree days 696  
Moisture  
Dew Point 35 °F    
Average Humidity 68    
Maximum Humidity 92    
Minimum Humidity 49    
Precipitation  
Precipitation 0.02 in 0.11 in 0.80 in (1991)
Month to date precipitation 2.72  
Year to date precipitation 31.72  
Snow  
Snow 0.00 in 0.00 in 2.00 in (1925)
Month to date snowfall 0.3  
Since 1 July snowfall 0.3  
Since 1 September snowfall 0.3  
Snow Depth -    
Sea Level Pressure  
Sea Level Pressure 30.16 in    
Wind  
Wind Speed 12 mph (NW)    
Max Wind Speed 23 mph    
Max Gust Speed 31 mph    
Visibility 10 miles    
Events Rain    
T = Trace of Precipitation, MM = Missing Value Source: NWS Daily Summary

Daily Weather History Graph

Daily Weather History Graph

Search for Another Location

Airport:

Trip Planner

Search our weather history database for the weather conditions in past years. The results will help you decide how hot, cold, wet, or windy it might be!

Date:

Astronomy

Oct. 26, 2012 Rise Set
Actual Time 8:07 AM EDT 6:39 PM EDT
Civil Twilight 7:38 AM EDT 7:09 PM EDT
Nautical Twilight 7:05 AM EDT 7:42 PM EDT
Astronomical Twilight 6:32 AM EDT 8:15 PM EDT
Moon 4:58 PM EDT (10/26) 4:59 AM EDT (10/26)
Length of Visible Light 11h 30m
Length of Day
10h 32m
Waxing Gibbous, 91% of the Moon is Illuminated
Oct 26
Waxing Gibbous
Oct 29
Full
Nov 6
Last Quarter
Nov 13
New
Nov 20
First Quarter

Hourly Weather History & Observations

Time (EDT) Temp. Windchill Dew Point Humidity Pressure Visibility Wind Dir Wind Speed Gust Speed Precip Events Conditions
12:14 AM 54.7 °F - 49.5 °F 83% 29.86 in 10.0 mi WNW 23.0 mph 31.1 mph N/A Rain Rain
12:34 AM 53.1 °F - 49.5 °F 88% 29.87 in 7.0 mi WNW 16.1 mph - N/A   Drizzle
1:14 AM 49.5 °F - 46.6 °F 90% 29.91 in 10.0 mi West 18.4 mph - N/A   Drizzle
1:34 AM 48.6 °F - 45.7 °F 90% 29.91 in 7.0 mi WNW 15.0 mph 24.2 mph N/A Rain Light Rain
2:14 AM 47.7 °F - 45.5 °F 92% 29.94 in 10.0 mi West 13.8 mph 19.6 mph 0.01 in Rain Light Rain
2:34 AM 47.3 °F - 45.1 °F 92% 29.95 in 10.0 mi WNW 15.0 mph 18.4 mph 0.01 in Rain Rain
2:54 AM 46.9 °F - 44.2 °F 90% 29.96 in 10.0 mi WNW 16.1 mph 21.9 mph 0.02 in Rain Light Rain
3:14 AM 46.6 °F - 43.2 °F 88% 29.98 in 10.0 mi WNW 17.3 mph 26.5 mph N/A   Light Drizzle
3:34 AM 45.9 °F 38.8 °F 42.6 °F 88% 30.02 in 10.0 mi West 17.3 mph 24.2 mph N/A   Overcast
3:54 AM 45.1 °F 37.6 °F 41.9 °F 88% 30.04 in 10.0 mi WNW 18.4 mph 25.3 mph N/A Rain Light Rain
4:14 AM 44.6 °F 37.8 °F 41.7 °F 90% 30.04 in 10.0 mi WNW 15.0 mph 19.6 mph N/A Rain Light Rain
4:34 AM 44.6 °F 38.8 °F 41.2 °F 88% 30.03 in 10.0 mi NW 11.5 mph - N/A Rain Light Rain
4:54 AM 44.4 °F 37.2 °F 40.8 °F 87% 30.03 in 10.0 mi NW 16.1 mph 21.9 mph N/A   Overcast
5:14 AM 44.6 °F 39.7 °F 40.6 °F 86% 30.04 in 10.0 mi NW 9.2 mph 17.3 mph N/A   Overcast
5:34 AM 44.6 °F 38.8 °F 40.5 °F 85% 30.06 in 10.0 mi WNW 11.5 mph - N/A   Overcast
5:54 AM 44.6 °F 38.1 °F 39.9 °F 84% 30.07 in 10.0 mi WNW 13.8 mph 17.3 mph N/A   Overcast
6:14 AM 44.6 °F 39.7 °F 39.7 °F 83% 30.09 in 10.0 mi WNW 9.2 mph - N/A   Overcast
6:34 AM 44.6 °F 38.4 °F 39.4 °F 82% 30.11 in 10.0 mi WNW 12.7 mph 17.3 mph N/A   Overcast
6:54 AM 43.9 °F 38.3 °F 38.1 °F 80% 30.11 in 10.0 mi NW 10.4 mph - N/A   Overcast
7:14 AM 43.7 °F 37.7 °F 37.6 °F 79% 30.11 in 10.0 mi NW 11.5 mph 18.4 mph N/A   Overcast
7:34 AM 43.3 °F 37.7 °F 37.0 °F 78% 30.12 in 10.0 mi NW 10.4 mph 17.3 mph N/A   Overcast
7:54 AM 43.2 °F 37.4 °F 36.3 °F 77% 30.14 in 10.0 mi NW 10.4 mph 19.6 mph N/A   Overcast
8:14 AM 42.8 °F 37.5 °F 36.3 °F 78% 30.15 in 10.0 mi NW 9.2 mph - N/A   Overcast
8:54 AM 42.1 °F 36.6 °F 34.5 °F 75% 30.18 in 10.0 mi WNW 9.2 mph 16.1 mph N/A   Overcast
9:34 AM 41.9 °F 37.5 °F 32.9 °F 70% 30.20 in 10.0 mi WNW 6.9 mph 16.1 mph N/A   Overcast
9:54 AM 42.4 °F 36.5 °F 32.9 °F 69% 30.20 in 10.0 mi NW 10.4 mph - N/A   Overcast
10:14 AM 42.3 °F 37.3 °F 32.7 °F 69% 30.21 in 10.0 mi NW 8.1 mph - N/A   Overcast
10:34 AM 42.6 °F 35.9 °F 32.5 °F 68% 30.21 in 10.0 mi NW 12.7 mph - N/A   Overcast
10:54 AM 43.2 °F 37.0 °F 32.5 °F 66% 30.22 in 10.0 mi NW 11.5 mph 16.1 mph N/A   Overcast
11:14 AM 43.7 °F 38.6 °F 31.8 °F 63% 30.23 in 10.0 mi NNW 9.2 mph 16.1 mph N/A   Mostly Cloudy
11:34 AM 45.3 °F 39.3 °F 32.0 °F 60% 30.23 in 10.0 mi WNW 12.7 mph - N/A   Scattered Clouds
11:54 AM 45.5 °F 40.3 °F 31.3 °F 58% 30.24 in 10.0 mi NW 10.4 mph 20.7 mph N/A   Scattered Clouds
12:14 PM 45.1 °F 39.9 °F 31.6 °F 59% 30.24 in 10.0 mi North 10.4 mph 18.4 mph N/A   Clear
12:34 PM 45.5 °F 41.3 °F 31.5 °F 58% 30.24 in 10.0 mi NNW 8.1 mph 16.1 mph N/A   Clear
12:54 PM 46.2 °F 41.7 °F 31.8 °F 57% 30.24 in 10.0 mi NW 9.2 mph 17.3 mph N/A   Clear
1:14 PM 46.8 °F - 32.2 °F 57% 30.24 in 10.0 mi NNW 6.9 mph 18.4 mph N/A   Clear
1:34 PM 47.3 °F - 31.8 °F 55% 30.24 in 10.0 mi NW 10.4 mph 16.1 mph N/A   Clear
1:54 PM 47.5 °F - 31.1 °F 53% 30.24 in 10.0 mi NW 11.5 mph - N/A   Clear
2:14 PM 47.5 °F - 30.7 °F 52% 30.23 in 10.0 mi NW 9.2 mph - N/A   Clear
2:34 PM 48.9 °F - 32.0 °F 52% 30.23 in 10.0 mi NW 9.2 mph - N/A   Clear
2:54 PM 49.1 °F - 31.1 °F 50% 30.23 in 10.0 mi NW 11.5 mph 17.3 mph N/A   Clear
3:14 PM 47.7 °F - 30.9 °F 52% 30.22 in 10.0 mi NW 6.9 mph - N/A   Clear
3:34 PM 47.5 °F - 29.7 °F 50% 30.22 in 10.0 mi WNW 9.2 mph - N/A   Clear
3:54 PM 48.0 °F - 29.8 °F 49% 30.22 in 10.0 mi North 9.2 mph - N/A   Clear
4:14 PM 47.5 °F - 30.0 °F 51% 30.23 in 10.0 mi NNW 6.9 mph - N/A   Clear
4:34 PM 47.8 °F - 29.7 °F 49% 30.22 in 10.0 mi NW 5.8 mph - N/A   Clear
4:54 PM 47.5 °F - 29.5 °F 50% 30.22 in 10.0 mi NNW 5.8 mph - N/A   Clear
5:14 PM 48.0 °F - 30.9 °F 52% 30.23 in 10.0 mi NNW 5.8 mph - N/A   Clear
5:34 PM 48.4 °F - 30.6 °F 50% 30.22 in 10.0 mi NNW 4.6 mph - N/A   Clear
5:54 PM 48.7 °F - 30.2 °F 49% 30.22 in 10.0 mi Calm Calm - N/A   Clear
6:14 PM 47.3 °F - 30.9 °F 53% 30.22 in 10.0 mi North 4.6 mph - N/A   Clear
6:34 PM 46.4 °F 44.3 °F 30.6 °F 54% 30.22 in 10.0 mi North 4.6 mph - N/A   Clear
6:54 PM 45.9 °F - 30.4 °F 55% 30.22 in 10.0 mi Calm Calm - N/A   Clear
7:14 PM 45.5 °F 42.5 °F 31.3 °F 58% 30.22 in 10.0 mi NNW 5.8 mph - N/A   Clear
7:34 PM 45.1 °F 42.8 °F 30.9 °F 58% 30.23 in 10.0 mi NNW 4.6 mph - N/A   Clear
7:54 PM 45.0 °F 41.8 °F 30.9 °F 58% 30.23 in 10.0 mi NNW 5.8 mph - N/A   Clear
8:14 PM 45.1 °F 41.4 °F 30.7 °F 57% 30.24 in 10.0 mi NNW 6.9 mph - N/A   Clear
8:34 PM 44.6 °F 41.4 °F 31.3 °F 60% 30.24 in 10.0 mi NNW 5.8 mph - N/A   Clear
8:54 PM 44.4 °F 41.2 °F 31.5 °F 60% 30.24 in 10.0 mi NNW 5.8 mph - N/A   Clear
9:14 PM 43.9 °F 40.5 °F 31.1 °F 61% 30.24 in 10.0 mi NNW 5.8 mph - N/A   Clear
9:34 PM 43.2 °F 40.5 °F 30.6 °F 61% 30.24 in 10.0 mi NNW 4.6 mph - N/A   Clear
9:54 PM 42.4 °F 38.8 °F 30.6 °F 63% 30.24 in 10.0 mi NNW 5.8 mph - N/A   Clear
10:14 PM 42.1 °F 37.7 °F 30.4 °F 63% 30.25 in 10.0 mi NNW 6.9 mph - N/A   Clear
10:34 PM 41.4 °F 37.6 °F 30.7 °F 66% 30.26 in 10.0 mi NNW 5.8 mph - N/A   Clear
11:14 PM 40.1 °F 36.9 °F 30.4 °F 68% 30.26 in 10.0 mi NNW 4.6 mph - N/A   Clear
11:34 PM 39.4 °F 34.5 °F 30.7 °F 71% 30.27 in 10.0 mi NNW 6.9 mph - N/A   Clear
11:54 PM 38.8 °F 34.6 °F 30.9 °F 73% 30.27 in 10.0 mi NNW 5.8 mph - N/A   Clear